Location: ?????????
(41.2393°N, 22.9479°E)
Time: 13:37:41
(UTC+00:00)

Cosmos 1656 Rocket - Pass Details

Date: 17 November 2025
Orbit: 791 x 846 km, 71.1° (Epoch: 06 December)

Event Time Altitude Azimuth Distance (km) Brightness Sun altitude
Rises 16:37:53 0° 181° (S) 3,316 6.9 -17.0°
Reaches altitude 10° 16:40:24 10° 174° (S) 2,397 6.1 -17.5°
Maximum altitude 16:45:29 40° 106° (ESE) 1,191 4.0 -18.4°
Enters shadow 16:47:07 33° 68° (ENE) 1,370 4.2 -18.7°
